Location: Bagnolo San Vito
(45.0833°N, 10.8833°E)
Time: 23:58:25
(UTC+00:00)

Cosmos 1959 Rocket - Pass Details

Date: 03 March 2021
Orbit: 948 x 996 km, 83.0° (Epoch: 17 April)

Event Time Altitude Azimuth Distance (km) Brightness Sun altitude
Rises 19:09:26 0° 185° (S) 3,608 7.4 -22.3°
Reaches altitude 10° 19:11:54 10° 186° (S) 2,665 6.7 -22.8°
Maximum altitude 19:18:00 89° 100° (E) 956 4.3 -23.8°
Drops below altitude 10° 19:24:09 10° 9° (N) 2,688 6.9 -24.8°
Sets 19:26:39 0° 9° (N) 3,641 7.6 -25.3°
